Regional Weather Roundup
Issued by NWS

Home | Current Version | Previous Version | Graphics & Text | Print | Product List | Glossary On
Versions: 1 2 3 4 5 6 7 8 9 10 11 12 13 14 15 16 17 18 19 20 21 22 23 24 25 26 27 28 29 30 31 32 33 34 35 36 37 38 39 40 41 42 43 44 45 46 47 48 49 50
899
ASUS43 KFSD 251110
RWRSD

WEATHER ROUNDUP FOR SOUTH DAKOTA
NATIONAL WEATHER SERVICE SIOUX FALLS SD
600 AM CDT MON SEP 25 2017

NOTE: "FAIR" INDICATES FEW OR NO CLOUDS BELOW 12,000 FEET WITH NO
SIGNIFICANT WEATHER AND/OR OBSTRUCTIONS TO VISIBILITY.


SDZ001>005-009-010-012>017-251200-
NORTHWEST AND NORTH CENTRAL SOUTH DAKOTA

CITY           SKY/WX    TMP DP  RH WIND       PRES   REMARKS
BUFFALO          N/A     43  40  89 NE3       30.08R
FAITH            N/A     45  44  97 N3        30.14S
MOBRIDGE       CLOUDY    50  46  86 N7        30.10F
$$

SDZ012>016-024>037-041>051-057-063-072>074-251200-
SOUTHWEST AND SOUTH CENTRAL SOUTH DAKOTA

CITY           SKY/WX    TMP DP  RH WIND       PRES   REMARKS
RAPID CTY ARPT NOT AVBL
PIERRE         CLOUDY    48  44  86 N7        30.11R
CUSTER         CLOUDY    37  33  85 CALM      30.12R
ELLSWORTH AFB  CLOUDY    44  44 100 N3        30.13
PHILIP         LGT RAIN  47  45  93 N6        30.14F
PINE RIDGE     PTCLDY    43  42  97 E8        30.11F
SPEARFISH      LGT RAIN  41  41 100 E5        30.13S
WINNER         CLOUDY    50  48  93 N7        30.10R
$$

SDZ004>011-016>023-039-040-251200-
NORTHEAST SOUTH DAKOTA

CITY           SKY/WX    TMP DP  RH WIND       PRES   REMARKS
ABERDEEN       CLOUDY    49  46  90 NW10      30.10S
WATERTOWN      CLOUDY    49  47  93 N9        30.07R
BROOKINGS      LGT RAIN  50  48  93 N9        30.05R
SISSETON         N/A     51  48  89 N9        30.06R
$$

SDZ017-020-022-023-036>040-048>070-251200-
SOUTHEAST SOUTH DAKOTA

CITY           SKY/WX    TMP DP  RH WIND       PRES   REMARKS
SIOUX FALLS    LGT RAIN  53  53 100 N10       30.02R
HURON          CLOUDY    50  48  93 N9        30.07F
CHAMBERLAIN    CLOUDY    51  49  93 NE7       30.09R
MITCHELL       LGT RAIN  51  50  96 N10       30.05F
YANKTON        LGT RAIN  52  51  97 N13       30.00F
$$

ABBREVIATIONS USED IN REMARKS
   TC - TEMPERATURE IN CELSIUS
  WCI - WIND CHILL INDEX
   HX - HEAT INDEX
  VSB - VISIBILITY





USA.gov is the U.S. government's official web portal to all federal, state and local government web resources and services.